Showing default

CFOSAT, 43662

Orbit data source: Space-Track

CFOSAT, 43662 is a Chinese payload satellite in SSO that was launched on Mon, 29 Oct 2018 UTC via a CHANG ZHENG 2C launch vehicle from the Jiuquan Satellite Launch Center, China (JSC). Payload-class satellites include a variety of spacecraft equipped with specific instruments for various scientific and technological missions. These include communications satellites like Starlink; space stations such as the ISS; scientific satellites like the Hubble; Earth observation satellites from companies like Planet Labs, Umbra, and HawkEye 360; GPS; miniature CubeSats for education and research; and military/defense satellites.

Loading next visibility...
Identifier
43662, 2018-083A
Orbit
SSO
Country
Flag of CNCN / PRC
Related business
Manufacturer
DFH
Mission
Operational Civil Earth Obs Sci
Bus & Motor
CAST-2000, Unknown motor
Mass
700 kg wet, 700 kg dry
Launch date (UTC)
2018-10-29 (8 years ago)
Launch vehicle
CHANG ZHENG 2C
Launch site
Jiuquan Satellite Launch Center, China (JSC)
Object type
Payload
Rocket body
Debris
Shape & HBR
Box + 2 Pan, 5.0 m
Radar Cross Section
5.252 m², Large (>1 m²)

Expand to show TLE details & history
Last TLE update: 13 hours ago

TLE from 13 hours ago
0 CFOSAT
1 43662U 18083A   26264.56746468  .00001958  00000-0  10414-3 0  9993
2 43662  97.3659 266.2822 0002857 111.1654 248.9885 15.16404086437048
Epoch: 2026-09-21T13:37Z
TLE epoch observation values (Epoch: 2026-09-21T13:37:08.948Z)
Latitude
Longitude
61.54948°
Altitude
520.513 km
Speed
7.603 km/s
True Right ascension
17h 45m 07s
True Declination
0° 00' 00"
Sunlit
Object was in daylight at epoch
Visualization orbit readout
Latitude
Unknown
Longitude
Unknown
Altitude
Unknown
Speed
Unknown
Apparent Right ascension
Unknown
Apparent Declination
Unknown
Sunlit
N/A
Visualization observer readout
Local Sidereal Time
19:21:51
Azimuth
Unknown
Elevation
Unknown
Doppler factor
Unknown
Orbital elements
Apogee altitude
515.657 km
Perigee altitude
511.719 km
Semi-major axis
6,891.825 km
Eccentricity
0.00029
Inclination
97.3659°
RAAN
266.2822°
Arg. of periapsis
111.1654°
True anomaly
248.95794°
Mean anomaly
248.9885°
Eccentric anomaly
248.97322°
Mean motion
3.79351 °/min
Orbital period
94.9 mins
BSTAR
0.00010414
Loading maneuver chart data...
Computing Atmospheric mass density...
Loading historical data...
Loading historical data...
Loading historical data...
Loading historical data...
Loading historical data...
Loading historical data...
Loading historical data...

Documentation

Showing up to 5 results
|